Home > Weather > Sunrise Manor > Past weeks

Flag for USA Past Weather in Sunrise Manor, Nevada, USA — Yesterday and Last 2 Weeks

Now
109 °F

Sunny.


Feels Like: 105 °F
Forecast: 84 / 113 °F
Wind: 1 mph from East

Location: Nellis Air Force Base

Current Time: Jul 27, 2016 at 2:12:49 PM

Latest Report: Jul 27, 2016 at 12:58 PM


Visibility: 10 mi

Pressure: 29.75 "Hg (28.02 "Hg at 555m altitude)

Humidity: 13%

Dew Point: 49 °F

Location of Sunrise ManorLocation

Past Weather in Sunrise Manor — Graph

°F

Sunrise Manor Temperature Yesterday

Maximum temperature yesterday: 110 °F (at 5:58 PM)
Minimum temperature yesterday: 87 °F (at 5:58 AM)
Average temperature yesterday: 100 °F

High & Low Weather Summary for the Past Weeks

 TemperatureHumidityPressure
High111 °F (Jul 22, 2:04 PM)36% (Jul 25, 6:58 AM)29.96 "Hg (Jul 25, 6:58 AM)
Low74 °F (Jul 13, 5:58 AM)3% (Jul 16, 2:58 PM)29.61 "Hg (Jul 23, 6:58 PM)
Average97 °F14%29.77 "Hg
* Reported Jul 12 12:58 PM — Jul 27 12:58 PM, Sunrise Manor, Weather by CustomWeather, © 2016

Note: Actual official high and low records may vary slightly from our data, if they occured in-between our weather recording intervals... More about our weather records

Advertising

Sunrise Manor Weather History for the Previous 24 Hours

Scroll right to see more
 ConditionsComfort  
Time TempWeatherWind HumidityBarometerVisibility
12:58 PM
Wed, Jul 27
109 °FSunny.1 mph13%29.75 "Hg10 mi
11:58 AM105 °FSunny.2 mph15%29.78 "Hg10 mi
10:58 AM103 °FSunny.3 mph16%29.79 "Hg10 mi
9:58 AM100 °FSunny.3 mph18%29.80 "Hg10 mi
8:58 AM97 °FSunny.1 mph19%29.80 "Hg10 mi
7:58 AM94 °FSunny.3 mph28%29.79 "Hg10 mi
6:58 AM86 °FSunny.7 mph28%29.78 "Hg10 mi
5:58 AM85 °FClear.No wind27%29.76 "Hg10 mi
4:58 AM86 °FClear.3 mph27%29.74 "Hg10 mi
3:58 AM87 °FClear.1 mph26%29.72 "Hg10 mi
2:58 AM89 °FClear.2 mph26%29.70 "Hg10 mi
1:58 AM92 °FClear.5 mph23%29.70 "Hg10 mi
12:58 AM96 °FClear.No wind19%29.70 "Hg10 mi
11:58 PM
Tue, Jul 26
99 °FClear.3 mph17%29.69 "Hg10 mi
10:58 PM101 °FClear.6 mph16%29.68 "Hg10 mi
9:58 PM101 °FClear.8 mph15%29.78 "Hg10 mi
8:58 PM103 °FClear.7 mph14%29.76 "Hg10 mi
7:58 PM107 °FSunny.1 mph11%29.75 "Hg10 mi
6:58 PM108 °FSunny.3 mph10%29.75 "Hg10 mi
5:58 PM110 °FSunny.No wind10%29.65 "Hg10 mi
4:58 PM110 °FSunny.6 mph10%29.67 "Hg10 mi
3:58 PM109 °FSunny.2 mph11%29.68 "Hg10 mi
2:58 PM108 °FSunny.6 mph12%29.71 "Hg10 mi
Weather by CustomWeather, © 2016

See weather overviewHow to use our weather pages